This is the latest recevied weather packets stored in our database for station/object WA4IKQ. If no packets are shown the sender has not sent any weather packets the latest 10 day(s).
| Time | Temp. | Humidity | Pressure | Rain* | Wind** | Luminosity | Snow |
|---|---|---|---|---|---|---|---|
| 1777839701 | 25.56° C | 56% | 1016.1 hPa | 0 mm | 1.34 m/s, 14° | - | - |
| 1777839279 | 25.56° C | 56% | 1016.1 hPa | 0 mm | 1.34 m/s, 14° | - | - |
| 1777838681 | 25° C | 58% | 1016 hPa | 0 mm | 2.24 m/s, 66° | - | - |
| 1777838073 | 25° C | 58% | 1016.2 hPa | 0 mm | 3.13 m/s, 10° | - | - |
| 1777837476 | 25° C | 59% | 1016.4 hPa | 0 mm | 1.79 m/s, 38° | - | - |
| 1777836753 | 24.44° C | 59% | 1016.7 hPa | 0 mm | 1.34 m/s, 353° | - | - |
| 1777835596 | 25° C | 57% | 1016.9 hPa | 0 mm | 0.89 m/s, 339° | - | - |
| 1777835327 | 25.56° C | 57% | 1016.9 hPa | 0 mm | 1.79 m/s, 53° | - | - |
| 1777835073 | 25.56° C | 57% | 1016.9 hPa | 0 mm | 1.79 m/s, 53° | - | - |
| 1777834417 | 25° C | 57% | 1017.1 hPa | 0 mm | 1.34 m/s, 336° | - | - |
| 1777832821 | 25.56° C | 56% | 1017.5 hPa | 0 mm | 1.79 m/s, 336° | - | - |
| 1777831896 | 25.56° C | 56% | 1017.6 hPa | 0 mm | 1.34 m/s, 335° | - | - |
| 1777831589 | 25° C | 56% | 1017.5 hPa | 0 mm | 2.68 m/s, 27° | - | - |
| 1777831215 | 25° C | 56% | 1017.7 hPa | 0 mm | 2.68 m/s, 359° | - | - |
| 1777831173 | 25° C | 56% | 1017.7 hPa | 0 mm | 2.68 m/s, 359° | - | - |
| 1777830997 | 25° C | 58% | 1017.7 hPa | 0 mm | 1.79 m/s, 23° | - | - |
| 1777830873 | 25° C | 58% | 1017.7 hPa | 0 mm | 1.79 m/s, 23° | - | - |
| 1777830578 | 24.44° C | 59% | 1017.7 hPa | 0 mm | 2.68 m/s, 35° | - | - |
| 1777830505 | 24.44° C | 58% | 1017.7 hPa | 0 mm | 1.34 m/s, 46° | - | - |
| 1777829562 | 24.44° C | 60% | 1017.8 hPa | 0 mm | 2.68 m/s, 309° | - | - |
| 1777829372 | 24.44° C | 60% | 1017.8 hPa | 0 mm | 2.68 m/s, 309° | - | - |
| 1777827271 | 23.89° C | 62% | 1018 hPa | 0 mm | 4.47 m/s, 329° | - | - |
| 1777827153 | 23.89° C | 63% | 1018.1 hPa | 0 mm | 2.24 m/s, 32° | - | - |
| 1777826337 | 23.33° C | 63% | 1018.1 hPa | 0 mm | 3.13 m/s, 25° | - | - |
| 1777826073 | 23.33° C | 63% | 1018.1 hPa | 0 mm | 3.13 m/s, 25° | - | - |
* Rain latest hour (hover to see other rain measurements)
** Current wind speed in m/s (hover to see current wind gust speed)